Regional Weather Roundup
Issued by NWS Boston, MA

Current Version | Previous Version | Text Only | Print | Product List | Glossary Off
Versions: 1 2 3 4 5 6 7 8 9 10 11 12 13 14 15 16 17 18 19 20 21 22 23 24 25 26 27 28 29 30 31 32 33 34 35 36 37 38 39 40 41 42 43 44 45 46 47 48 49 50
000 ASUS41 KBOX 212010 RWRBOX REGIONAL WEATHER ROUNDUP NATIONAL WEATHER SERVICE TAUNTON MA 400 PM EDT THU SEP 21 2017 NOTE: "FAIR" INDICATES FEW OR NO CLOUDS BELOW 12,000 FEET WITH NO SIGNIFICANT WEATHER AND/OR OBSTRUCTIONS TO VISIBILITY. MAZALL-212100- EASTERN MASSACHUSETTS CITY SKY/WX TMP DP RH WIND PRES REMARKS BOSTON CLOUDY 72 53 51 NE23 30.00S BEVERLY PTSUNNY 70 55 59 NE12G23 30.01S LAWRENCE CLOUDY 76 54 46 N14 30.04S BEDFORD PTSUNNY 73 53 49 N17 30.00S BLUE HILL N/A 69 51 52 NE20G40 29.99F NORWOOD PTSUNNY 75 52 44 N12G24 29.98F MARSHFIELD CLOUDY 66 55 68 N12G21 29.97F PLYMOUTH CLOUDY 67 48 50 N32G43 29.95F TAUNTON MOSUNNY 69 49 48 N17G33 29.96F NEW BEDFORD PTSUNNY 68 49 50 N18G33 29.92F $$ MAZALL-212100- CAPE COD AND THE ISLANDS CITY SKY/WX TMP DP RH WIND PRES REMARKS FALMOUTH CLOUDY 63 52 67 N21G36 29.91S HYANNIS CLOUDY 64 54 69 N23G37 29.86R CHATHAM HVY RAIN 60 58 92 N14G35 29.86S FOG PROVINCETOWN CLOUDY 63 52 67 NE28G37 29.93S NANTUCKET CLOUDY 61 60 97 N35G51 29.79S FOG MARTHAS VNYRD CLOUDY 65 52 62 N24G41 29.86S $$ MAZALL-212100- CENTRAL AND WESTERN MASSACHUSETTS CITY SKY/WX TMP DP RH WIND PRES REMARKS WORCESTER CLOUDY 67 52 58 N10G20 30.04S FITCHBURG PTSUNNY 72 56 57 N7 30.05S ORANGE CLOUDY 74 56 53 NE5 30.04S SPRINGFIELD PTSUNNY 76 53 44 NE13G21 30.01R WESTFIELD CLOUDY 77 53 43 NE8 30.01S NORTH ADAMS CLOUDY 76 64 66 CALM 30.03S PITTSFIELD CLOUDY 75 61 61 N8 30.04S $$ RIZALL-212100- RHODE ISLAND CITY SKY/WX TMP DP RH WIND PRES REMARKS PROVIDENCE PTSUNNY 72 49 44 NE20G26 29.97F NEWPORT CLOUDY 69 49 48 N29G41 29.92F BLOCK ISLAND CLOUDY 69 53 56 N25G36 29.90F SMITHFIELD CLOUDY 69 51 52 N14 29.99F WESTERLY MOSUNNY 71 52 50 N16G28 29.94S $$ CTZALL-212100- CONNECTICUT CITY SKY/WX TMP DP RH WIND PRES REMARKS BRADLEY INTL CLOUDY 76 56 49 NE12 30.01R HARTFORD CLOUDY 75 59 57 NE14 29.99S BRIDGEPORT CLOUDY 77 62 59 NE8 29.97F DANBURY CLOUDY 77 64 64 N8 30.01F GROTON CLOUDY 71 55 56 N18G25 29.94R NEW HAVEN CLOUDY 76 57 51 N15 29.97F CHESTER FAIR 72 59 64 N12G18 29.97F MERIDEN CLOUDY 75 58 55 N8 29.99S WILLIMANTIC CLOUDY 72 56 57 N13G22 29.99F OXFORD CLOUDY 73 62 68 N12 30.01F $$ MEZ002-015-021-024-NHZ003-005-008-011-012-014-VTZ005-008-212100- NORTHERN NEW ENGLAND CITY SKY/WX TMP DP RH WIND PRES REMARKS PORTLAND ME CLOUDY 72 48 42 NE13G18 30.06S BANGOR ME PTSUNNY 75 46 35 NE15 30.09F CONCORD NH CLOUDY 75 49 39 NE15 30.06S MANCHESTER NH CLOUDY 73 50 44 NE9 30.03S NASHUA NH CLOUDY 71 52 50 VRB6 30.05R PORTSMOUTH NH PTSUNNY 72 53 51 NE12 30.03S JAFFREY NH CLOUDY 71 57 61 CALM 30.07S KEENE NH PTSUNNY 74 56 53 NE5 30.05S BURLINGTON VT PTSUNNY 78 59 51 N12 30.07F MT. WASHINGTON PTSUNNY 50 27 40 NE30G37 N/A $$ NYZ052-076-212100- EASTERN NEW YORK CITY SKY/WX TMP DP RH WIND PRES REMARKS ALBANY PTSUNNY 79 60 52 N12 30.04S NEW YORK CITY CLOUDY 79 64 60 N13 29.97F $$ ANZALL-212100- MARINE OBSERVATIONS STATION/POSITION TIME TEMP WIND PRES VSBY WAVE AIR SEA DIR/SP/G HT/PER (UTC) (F) (DEG/KT/KT) (MB) (MI) (FT/S) BOSTON BUOY 1950 64 60 20/ 21/ 25 1015.0R 11/ 9 BUZZARDS BAY 2000 67 10/ 36/ 42 1011.1F NANTUCKET SOUND 1950 60 62 10/ 31/ 39 1008.9F 7/ 5 MASS BAY-STELLWA 1904 64 62 30/ 19/ 23 1015.0R 10/ 8 ISLE OF SHOALS 2000 65 40/ 18/ 22 1016.3S S OF BLOCK IS NOT AVBL $$ ......................KEY......................... SKY/WX - SKY CONDITION/PRESENT WEATHER TMP - TEMPERATURE IN FAHRENHEIT DWPT - DEWPOINT IN FAHRENHEIT RH - RELATIVE HUMIDITY IN PERCENT WIND - DIRECTION AND SPEED IN MPH PRES - MEAN SEA LEVEL PRESSURE IN INCHES OF HG WCI - WIND CHILL INDEX VSB - VISIBILITY IN MILES HX - HEAT INDEX TC - TEMPERATURE IN CELSIUS VRB - VARIABLE WIND DIRECTION N/A - NOT AVAILABLE

USA.gov is the U.S. government's official web portal to all federal, state and local government web resources and services.